Regional Weather Roundup
Issued by NWS

Home | Current Version | Previous Version | Text Only | Print | Product List | Glossary On
Versions: 1 2 3 4 5 6 7 8 9 10 11 12 13 14 15 16 17 18 19 20 21 22 23 24 25 26 27 28 29 30 31 32 33 34 35 36 37 38 39 40 41 42 43 44 45 46 47 48 49 50
000
ASUS42 KKEY 081710
RWRKEY

FLORIDA REGIONAL WEATHER ROUNDUP FOR THE FLORIDA KEYS
NATIONAL WEATHER SERVICE KEY WEST FLORIDA
1200 PM EST MON FEB 08 2016

...SOUTH FLORIDA AND THE KEYS...

CITY           SKY/WX    TMP DP  RH WIND       PRES   REMARKS
FORT MYERS     SUNNY     63  44  50 W8        30.11F
SW REGIONAL AP SUNNY     64  46  52 W9        30.11F
NAPLES         PTSUNNY   61  45  55 VRB5      30.12F
MIAMI          PTSUNNY   63  40  42 W9        30.12F
WEST KENDALL   SUNNY     63  43  48 NW9       30.12F
HOMESTEAD      SUNNY     64  42  44 W10       30.12F
MARATHON       SUNNY     62  44  51 N6        30.15F
BOCA CHICA NAS MOSUNNY   63  47  55 VRB3      30.14F
KEY WEST INTL  SUNNY     64  49  57 VRB5      30.15F

...INTERNATIONAL WEATHER...

CITY           SKY/WX    TMP DP  RH WIND       PRES   REMARKS
NASSAU BAHAMAS PTSUNNY   73  41  31 W8        30.10F
CANCUN MEXICO  PTSUNNY   72  59  64 W9        30.18F
COZUMEL MEXICO PTSUNNY   68  59  73 N9        30.19S

ADJACENT COASTAL WATERS...

STATION/POSITION TIME  SKY/WX   TEMP    WIND        PRES    WAVE
                                AIR SEA DIR/SP/G            HT/PER
                 (UTC)          (F)     (DEG/KT/KT) (MB)    (FT/S)
PULASKI SHOAL LI NOT AVBL
SAND KEY         1650            61      80/  5/  7 1021.1F
SOMBRERO KEY     NOT AVBL
LONG KEY         1600            57 64  360/  5/  7 1022.2F
MOLASSES REEF    1700            60 72  330/  7/  8 1020.3F
FOWEY ROCKS      NOT AVBL

$$



USA.gov is the U.S. government's official web portal to all federal, state and local government web resources and services.